| time (UTC) | temp F | wind direction | speed MPH | gust MPH | rain 1hr in | rain 24hr in | rain mn in | humidity % | barometer mb |
| 20260831091547 | 59 | 196 | 0.0 | 0.0 | 0.00 | 0.00 | 0.00 | 34 | 1010.4 |
| 20260831090045 | 59 | 196 | 0.0 | 0.0 | 0.00 | 0.00 | 0.00 | 36 | 1010.5 |
| 20260831084545 | 59 | 196 | 0.0 | 0.0 | 0.00 | 0.00 | 0.00 | 39 | 1010.5 |
| 20260831083045 | 60 | 196 | 0.0 | 0.0 | 0.00 | 0.00 | 0.00 | 37 | 1010.5 |
| 20260831081543 | 60 | 196 | 0.0 | 0.0 | 0.00 | 0.00 | 0.00 | 36 | 1010.5 |
| 20260831080052 | 60 | 196 | 0.0 | 0.0 | 0.00 | 0.00 | 0.00 | 37 | 1010.5 |
| 20260831074536 | 60 | 196 | 0.0 | 0.0 | 0.00 | 0.00 | 0.00 | 33 | 1010.6 |
| 20260831073035 | 60 | 262 | 0.0 | 0.0 | 0.00 | 0.00 | 0.00 | 33 | 1010.6 |
| 20260831071530 | 61 | 262 | 0.0 | 0.0 | 0.00 | 0.00 | 0.00 | 34 | 1010.7 |
| 20260831070030 | 61 | 262 | 0.0 | 0.0 | 0.00 | 0.00 | 0.00 | 38 | 1010.7 |
| 20260831064528 | 61 | 262 | 0.0 | 0.0 | 0.00 | 0.00 | 0.00 | 40 | 1010.8 |
| 20260831063026 | 62 | 262 | 0.0 | 0.0 | 0.00 | 0.00 | 0.00 | 45 | 1010.9 |
| 20260831061525 | 62 | 262 | 0.0 | 0.0 | 0.00 | 0.00 | 0.00 | 46 | 1010.6 |
| 20260831060024 | 62 | 300 | 0.0 | 0.0 | 0.00 | 0.00 | 0.00 | 46 | 1010.7 |
| 20260831054524 | 62 | 299 | 0.0 | 0.0 | 0.00 | 0.00 | 0.00 | 44 | 1010.4 |
| 20260831053023 | 63 | 299 | 0.0 | 0.0 | 0.00 | 0.00 | 0.00 | 44 | 1010.5 |
| 20260831051523 | 63 | 299 | 0.0 | 0.0 | 0.00 | 0.00 | 0.00 | 44 | 1010.5 |
| 20260831050022 | 64 | 299 | 0.0 | 0.0 | 0.00 | 0.00 | 0.00 | 44 | 1010.6 |
| 20260831044522 | 65 | 299 | 0.0 | 0.0 | 0.00 | 0.00 | 0.00 | 44 | 1010.4 |
| 20260831043020 | 66 | 299 | 0.0 | 0.0 | 0.00 | 0.00 | 0.00 | 44 | 1010.2 |
| 20260831041522 | 67 | 299 | 0.0 | 0.0 | 0.00 | 0.00 | 0.00 | 43 | 1010.4 |
| 20260831040024 | 68 | 299 | 0.0 | 0.0 | 0.00 | 0.00 | 0.00 | 43 | 1010.2 |
| 20260831034522 | 69 | 299 | 0.0 | 0.0 | 0.00 | 0.00 | 0.00 | 42 | 1010.2 |
| 20260831033019 | 70 | 299 | 0.0 | 0.0 | 0.00 | 0.00 | 0.00 | 42 | 1009.9 |
| 20260831031523 | 71 | 299 | 0.0 | 0.0 | 0.00 | 0.00 | 0.00 | 41 | 1009.7 |
| 20260831030018 | 73 | 299 | 0.0 | 0.0 | 0.00 | 0.00 | 0.00 | 39 | 1009.7 |
| 20260831024519 | 74 | 299 | 0.0 | 0.0 | 0.00 | 0.00 | 0.00 | 37 | 1009.6 |
| 20260831023016 | 76 | 299 | 0.0 | 0.0 | 0.00 | 0.00 | 0.00 | 34 | 1009.7 |
| 20260831021528 | 77 | 299 | 0.0 | 0.0 | 0.00 | 0.00 | 0.00 | 33 | 1009.6 |
| 20260831020016 | 78 | 295 | 0.0 | 0.0 | 0.00 | 0.00 | 0.00 | 32 | 1009.5 |
| 20260831014515 | 78 | 304 | 0.0 | 0.0 | 0.00 | 0.00 | 0.00 | 30 | 1009.6 |
| 20260831013023 | 79 | 301 | 0.0 | 0.0 | 0.00 | 0.00 | 0.00 | 30 | 1009.5 |
| 20260831011515 | 80 | 323 | 0.0 | 1.0 | 0.00 | 0.00 | 0.00 | 29 | 1009.6 |
| 20260831010016 | 81 | 302 | 0.0 | 1.0 | 0.00 | 0.00 | 0.00 | 27 | 1009.5 |
| 20260831004514 | 81 | 230 | 0.0 | 12.0 | 0.00 | 0.00 | 0.00 | 26 | 1009.6 |
| 20260831003012 | 82 | 271 | 0.0 | 10.0 | 0.00 | 0.00 | 0.00 | 25 | 1009.5 |
| 20260831001510 | 83 | 241 | 1.0 | 8.0 | 0.00 | 0.00 | 0.00 | 26 | 1009.5 |
| 20260831000017 | 84 | 281 | 0.0 | 11.0 | 0.00 | 0.00 | 0.00 | 26 | 1009.4 |
| 20260830234508 | 84 | 284 | 1.0 | 10.0 | 0.00 | 0.00 | 0.00 | 26 | 1009.3 |
| 20260830233011 | 85 | 313 | 0.0 | 11.0 | 0.00 | 0.00 | 0.00 | 27 | 1009.6 |
| 20260830231505 | 85 | 323 | 0.0 | 10.0 | 0.00 | 0.00 | 0.00 | 28 | 1009.6 |
| 20260830230004 | 86 | 165 | 0.0 | 2.0 | 0.00 | 0.00 | 0.00 | 28 | 1009.5 |
| 20260830224503 | 86 | 316 | 1.0 | 11.0 | 0.00 | 0.00 | 0.00 | 28 | 1009.6 |
| 20260830223000 | 87 | 291 | 2.0 | 10.0 | 0.00 | 0.00 | 0.00 | 28 | 1009.6 |
| 20260830221609 | 88 | 275 | 1.0 | 11.0 | 0.00 | 0.00 | 0.00 | 28 | 1009.6 |
| 20260830214602 | 90 | 270 | 0.0 | 13.0 | 0.00 | 0.00 | 0.00 | 25 | 1009.7 |
| 20260830213055 | 91 | 277 | 0.0 | 11.0 | 0.00 | 0.00 | 0.00 | 24 | 1010.0 |
| 20260830211654 | 92 | 13 | 0.0 | 11.0 | 0.00 | 0.00 | 0.00 | 24 | 1010.1 |
| 20260830210059 | 92 | 262 | 0.0 | 13.0 | 0.00 | 0.00 | 0.00 | 25 | 1010.2 |
| 20260830204553 | 92 | 288 | 1.0 | 11.0 | 0.00 | 0.00 | 0.00 | 25 | 1010.5 |
| 20260830203048 | 93 | 329 | 1.0 | 13.0 | 0.00 | 0.00 | 0.00 | 25 | 1010.6 |
| 20260830201545 | 92 | 292 | 0.0 | 9.0 | 0.00 | 0.00 | 0.00 | 25 | 1010.5 |
| 20260830200042 | 92 | 293 | 0.0 | 12.0 | 0.00 | 0.00 | 0.00 | 25 | 1010.7 |
| 20260830194541 | 92 | 345 | 1.0 | 9.0 | 0.00 | 0.00 | 0.00 | 25 | 1010.6 |
| 20260830193036 | 92 | 290 | 1.0 | 14.0 | 0.00 | 0.00 | 0.00 | 25 | 1010.7 |
| 20260830191533 | 91 | 292 | 1.0 | 11.0 | 0.00 | 0.00 | 0.00 | 24 | 1010.8 |
| 20260830190032 | 91 | 326 | 0.0 | 15.0 | 0.00 | 0.00 | 0.00 | 23 | 1010.8 |
| 20260830184529 | 91 | 318 | 0.0 | 12.0 | 0.00 | 0.00 | 0.00 | 23 | 1011.0 |
| 20260830183027 | 91 | 261 | 0.0 | 9.0 | 0.00 | 0.00 | 0.00 | 23 | 1011.0 |
| 20260830181524 | 90 | 321 | 1.0 | 10.0 | 0.00 | 0.00 | 0.00 | 23 | 1011.2 |
| 20260830180022 | 90 | 321 | 2.0 | 11.0 | 0.00 | 0.00 | 0.00 | 24 | 1011.1 |
| 20260830174519 | 89 | 275 | 1.0 | 11.0 | 0.00 | 0.00 | 0.00 | 25 | 1011.0 |
| 20260830173015 | 89 | 309 | 3.0 | 11.0 | 0.00 | 0.00 | 0.00 | 24 | 1010.9 |
| 20260830171511 | 87 | 302 | 0.0 | 3.0 | 0.00 | 0.00 | 0.00 | 25 | 1010.8 |
| 20260830170008 | 86 | 293 | 0.0 | 6.0 | 0.00 | 0.00 | 0.00 | 26 | 1010.8 |
| 20260830164503 | 84 | 355 | 0.0 | 0.0 | 0.00 | 0.00 | 0.00 | 28 | 1010.7 |
| 20260830163100 | 83 | 311 | 0.0 | 1.0 | 0.00 | 0.00 | 0.00 | 31 | 1010.7 |
| 20260830161609 | 81 | 303 | 0.0 | 11.0 | 0.00 | 0.00 | 0.00 | 32 | 1010.8 |
| 20260830160051 | 78 | 308 | 0.0 | 0.0 | 0.00 | 0.00 | 0.00 | 36 | 1010.8 |
| 20260830154546 | 74 | 290 | 0.0 | 8.0 | 0.00 | 0.00 | 0.00 | 41 | 1010.7 |
| 20260830153041 | 70 | 118 | 0.0 | 0.0 | 0.00 | 0.00 | 0.00 | 51 | 1010.9 |
| 20260830151541 | 67 | 118 | 0.0 | 0.0 | 0.00 | 0.00 | 0.00 | 56 | 1010.8 |
| 20260830150033 | 65 | 117 | 0.0 | 0.0 | 0.00 | 0.00 | 0.00 | 60 | 1010.7 |
| 20260830144531 | 63 | 117 | 0.0 | 0.0 | 0.00 | 0.00 | 0.00 | 63 | 1010.6 |
| 20260830143034 | 63 | 117 | 0.0 | 0.0 | 0.00 | 0.00 | 0.00 | 64 | 1010.8 |
| 20260830141538 | 62 | 117 | 0.0 | 0.0 | 0.00 | 0.00 | 0.00 | 65 | 1010.6 |
| 20260830140028 | 61 | 116 | 0.0 | 0.0 | 0.00 | 0.00 | 0.00 | 65 | 1010.5 |
| 20260830134537 | 61 | 120 | 0.0 | 0.0 | 0.00 | 0.00 | 0.00 | 65 | 1010.4 |
| 20260830133026 | 61 | 120 | 0.0 | 0.0 | 0.00 | 0.00 | 0.00 | 65 | 1010.3 |
| 20260830131525 | 60 | 120 | 0.0 | 0.0 | 0.00 | 0.00 | 0.00 | 66 | 1010.1 |
| 20260830130028 | 60 | 120 | 0.0 | 0.0 | 0.00 | 0.00 | 0.00 | 66 | 1010.1 |
| 20260830124524 | 60 | 120 | 0.0 | 0.0 | 0.00 | 0.00 | 0.00 | 67 | 1010.0 |
| 20260830123022 | 60 | 120 | 0.0 | 0.0 | 0.00 | 0.00 | 0.00 | 67 | 1010.0 |
| 20260830121525 | 60 | 120 | 0.0 | 0.0 | 0.00 | 0.00 | 0.00 | 67 | 1009.9 |
| 20260830120020 | 60 | 120 | 0.0 | 0.0 | 0.00 | 0.00 | 0.00 | 67 | 1009.8 |
| 20260830114519 | 60 | 120 | 0.0 | 0.0 | 0.00 | 0.00 | 0.00 | 67 | 1010.0 |
| 20260830113019 | 61 | 120 | 0.0 | 0.0 | 0.00 | 0.00 | 0.00 | 67 | 1009.8 |
| 20260830111517 | 61 | 120 | 0.0 | 0.0 | 0.00 | 0.00 | 0.00 | 67 | 1009.8 |
| 20260830110020 | 61 | 120 | 0.0 | 0.0 | 0.00 | 0.00 | 0.00 | 67 | 1009.7 |
| 20260830104514 | 61 | 120 | 0.0 | 0.0 | 0.00 | 0.00 | 0.00 | 66 | 1009.8 |
| 20260830103014 | 61 | 120 | 0.0 | 0.0 | 0.00 | 0.00 | 0.00 | 65 | 1009.7 |
| 20260830101511 | 62 | 120 | 0.0 | 0.0 | 0.00 | 0.00 | 0.00 | 64 | 1009.7 |
| 20260830100013 | 62 | 120 | 0.0 | 0.0 | 0.00 | 0.00 | 0.00 | 63 | 1009.7 |
| 20260830094516 | 62 | 120 | 0.0 | 0.0 | 0.00 | 0.00 | 0.00 | 63 | 1009.7 |
| 20260830093006 | 62 | 120 | 0.0 | 0.0 | 0.00 | 0.00 | 0.00 | 62 | 1009.6 |